This demonstration page uses our WeatherBlox Daily Observations layout. Learn more.

38.88101, -77.10428

Hourly Observations for March 12, 2016

Temp ( °F °C ) Dew Point ( °F °C ) Humidity (%) Winds ( mph kmh ) Pressure ( in mb ) Visibility ( mi km ) Precip ( " mm )
12:52 am 00:52 Mostly Clear 55 12.8 36 2.2 49 49 Calm 30.33 1027 10 16.09344 0 0
1:52 am 01:52 Partly Cloudy 54 12.2 38 3.3 55 55 NE 5 7 30.33 1027 10 16.09344 0 0
2:52 am 02:52 Partly Cloudy 52 11.1 39 3.9 61 61 ENE 7 11 30.33 1027 10 16.09344 0 0
3:52 am 03:52 Mostly Cloudy 52 11.1 39 3.9 61 61 Calm 30.33 1027 10 16.09344 0 0
4:52 am 04:52 Cloudy 52 11.1 39 3.9 61 61 NE 3 6 30.33 1027 10 16.09344 0 0
5:52 am 05:52 Mostly Cloudy 51 10.6 39 3.9 64 64 NE 6 9 30.33 1027 10 16.09344 0 0
6:52 am 06:52 Cloudy 51 10.6 38 3.3 61 61 NE 7 11 30.33 1027 10 16.09344 0 0
7:52 am 07:52 Cloudy 51 10.6 37 2.8 59 59 NE 8 13 30.33 1027 10 16.09344 0 0
8:52 am 08:52 Cloudy 53 11.7 36 2.2 52 52 N 3 6 30.33 1027 10 16.09344 0 0
9:52 am 09:52 Cloudy 53 11.7 37 2.8 55 55 S 3 6 30.3 1026 10 16.09344 0 0
10:52 am 10:52 Cloudy 55 12.8 42 5.6 62 62 S 7 11 30.27 1025 10 16.09344 0 0
11:52 am 11:52 Cloudy 56 13.3 43 6.1 62 62 S 3 6 30.27 1025 10 16.09344 0 0
12:52 pm 12:52 Cloudy 59 15 45 7.2 60 60 S 5 7 30.24 1024 10 16.09344 0 0
1:52 pm 13:52 Cloudy 59 15 46 7.8 62 62 NE 3 6 30.18 1022 10 16.09344 0 0
2:52 pm 14:52 Cloudy 60 15.6 47 8.3 62 62 NNE 3 6 30.15 1021 10 16.09344 0.001 0.001
3:52 pm 15:52 Cloudy 59 15 46 8 63 63 ENE 9 15 30.12 1020 10 16.09344 0 0
4:52 pm 16:52 Mostly Cloudy 57 13.9 46 7.8 67 67 E 7 11 30.12 1020 10 16.09344 0.001 0.001
5:52 pm 17:52 Mostly Cloudy 56 13.3 46 7.8 70 70 E 5 7 30.12 1020 10 16.09344 0 0
6:52 pm 18:52 Mostly Cloudy 55 12.8 46 7.8 72 72 ENE 7 11 30.12 1020 10 16.09344 0 0
7:52 pm 19:52 Mostly Cloudy 55 12.8 46 7.8 72 72 NE 6 9 30.12 1020 10 16.09344 0 0
8:52 pm 20:52 Clear 54 12.2 46 7.8 75 75 ENE 6 9 30.09 1019 10 16.09344 0 0
9:52 pm 21:52 Mostly Cloudy 54 12.2 46 7.8 75 75 NE 3 6 30.09 1019 10 16.09344 0 0
10:52 pm 22:52 Cloudy 54 12.2 45 7.2 72 72 Calm 30.06 1018 10 16.09344 0 0
11:52 pm 23:52 Cloudy 54 12.2 46 7.8 75 75 SSW 5 7 30.06 1018 10 16.09344 0 0

Powered by AerisWeather